| time (UTC) | temp F | wind direction | speed MPH | gust MPH | rain 1hr in | rain 24hr in | rain mn in | humidity % | barometer mb |
| 20260508091013 | 50 | 0 | 0.0 | 0.0 | 0.00 | 0.00 | 0.00 | 93 | 1015.6 |
| 20260508090514 | 50 | 0 | 0.0 | 0.0 | 0.00 | 0.00 | 0.00 | 93 | 1015.6 |
| 20260508090014 | 50 | 0 | 0.0 | 0.0 | 0.00 | 0.00 | 0.00 | 93 | 1015.5 |
| 20260508085513 | 50 | 0 | 0.0 | 0.0 | 0.00 | 0.00 | 0.00 | 93 | 1015.4 |
| 20260508085013 | 50 | 0 | 0.0 | 0.0 | 0.00 | 0.00 | 0.00 | 93 | 1015.4 |
| 20260508084513 | 50 | 0 | 0.0 | 0.0 | 0.00 | 0.00 | 0.00 | 93 | 1015.3 |
| 20260508084013 | 50 | 0 | 0.0 | 0.0 | 0.00 | 0.00 | 0.00 | 93 | 1015.3 |
| 20260508083513 | 50 | 0 | 0.0 | 0.0 | 0.00 | 0.00 | 0.00 | 92 | 1015.2 |
| 20260508083013 | 50 | 0 | 0.0 | 0.0 | 0.00 | 0.00 | 0.00 | 92 | 1015.2 |
| 20260508082514 | 49 | 0 | 0.0 | 0.0 | 0.00 | 0.00 | 0.00 | 92 | 1015.2 |
| 20260508082013 | 49 | 0 | 0.0 | 0.0 | 0.00 | 0.00 | 0.00 | 93 | 1015.1 |
| 20260508081513 | 49 | 0 | 0.0 | 0.0 | 0.00 | 0.00 | 0.00 | 93 | 1015.0 |
| 20260508081014 | 49 | 0 | 0.0 | 0.0 | 0.00 | 0.00 | 0.00 | 93 | 1015.0 |
| 20260508080513 | 49 | 0 | 0.0 | 0.0 | 0.00 | 0.00 | 0.00 | 92 | 1015.0 |
| 20260508080014 | 49 | 0 | 0.0 | 0.0 | 0.00 | 0.00 | 0.00 | 92 | 1014.9 |
| 20260508075513 | 49 | 0 | 0.0 | 0.0 | 0.00 | 0.00 | 0.00 | 92 | 1015.0 |
| 20260508075014 | 49 | 0 | 0.0 | 0.0 | 0.00 | 0.00 | 0.00 | 92 | 1015.1 |
| 20260508074514 | 49 | 0 | 0.0 | 0.0 | 0.00 | 0.00 | 0.00 | 92 | 1015.1 |
| 20260508074013 | 49 | 0 | 0.0 | 0.0 | 0.00 | 0.00 | 0.00 | 92 | 1015.1 |
| 20260508073513 | 49 | 0 | 0.0 | 0.0 | 0.00 | 0.00 | 0.00 | 92 | 1015.0 |
| 20260508073013 | 49 | 0 | 0.0 | 0.0 | 0.00 | 0.00 | 0.00 | 92 | 1015.0 |
| 20260508072513 | 49 | 0 | 0.0 | 0.0 | 0.00 | 0.00 | 0.00 | 92 | 1015.0 |
| 20260508072030 | 49 | 0 | 0.0 | 0.0 | 0.00 | 0.00 | 0.00 | 92 | 1014.9 |
| 20260508071513 | 49 | 0 | 0.0 | 0.0 | 0.00 | 0.00 | 0.00 | 92 | 1015.0 |
| 20260508071013 | 49 | 0 | 0.0 | 0.0 | 0.00 | 0.00 | 0.00 | 91 | 1015.0 |
| 20260508070514 | 49 | 0 | 0.0 | 0.0 | 0.00 | 0.00 | 0.00 | 91 | 1014.9 |
| 20260508070013 | 49 | 0 | 0.0 | 0.0 | 0.00 | 0.00 | 0.00 | 91 | 1014.9 |
| 20260508065513 | 49 | 0 | 0.0 | 0.0 | 0.00 | 0.00 | 0.00 | 91 | 1014.9 |
| 20260508065013 | 49 | 0 | 0.0 | 0.0 | 0.00 | 0.00 | 0.00 | 91 | 1014.9 |
| 20260508064513 | 49 | 0 | 0.0 | 0.0 | 0.00 | 0.00 | 0.00 | 91 | 1015.0 |
| 20260508064013 | 49 | 0 | 0.0 | 0.0 | 0.00 | 0.00 | 0.00 | 90 | 1014.9 |
| 20260508063513 | 49 | 0 | 0.0 | 0.0 | 0.00 | 0.00 | 0.00 | 90 | 1014.8 |
| 20260508063013 | 49 | 0 | 0.0 | 0.0 | 0.00 | 0.00 | 0.00 | 90 | 1014.8 |
| 20260508062513 | 49 | 0 | 0.0 | 0.0 | 0.00 | 0.00 | 0.00 | 90 | 1014.7 |
| 20260508062014 | 49 | 0 | 0.0 | 0.0 | 0.00 | 0.00 | 0.00 | 89 | 1014.7 |
| 20260508061513 | 49 | 0 | 0.0 | 0.0 | 0.00 | 0.00 | 0.00 | 89 | 1014.7 |
| 20260508061013 | 49 | 0 | 0.0 | 0.0 | 0.00 | 0.00 | 0.00 | 88 | 1014.7 |
| 20260508060514 | 49 | 0 | 0.0 | 0.0 | 0.00 | 0.00 | 0.00 | 88 | 1014.7 |
| 20260508060014 | 50 | 0 | 0.0 | 0.0 | 0.00 | 0.00 | 0.00 | 87 | 1014.7 |
| 20260508055513 | 50 | 0 | 0.0 | 0.0 | 0.00 | 0.00 | 0.00 | 86 | 1014.6 |
| 20260508055013 | 50 | 0 | 0.0 | 0.0 | 0.00 | 0.00 | 0.00 | 85 | 1014.6 |
| 20260508054513 | 51 | 0 | 0.0 | 0.0 | 0.00 | 0.00 | 0.00 | 85 | 1014.6 |
| 20260508054014 | 51 | 0 | 0.0 | 0.0 | 0.00 | 0.00 | 0.00 | 84 | 1014.6 |
| 20260508053513 | 51 | 0 | 0.0 | 0.0 | 0.00 | 0.00 | 0.00 | 83 | 1014.6 |
| 20260508053014 | 52 | 0 | 0.0 | 0.0 | 0.00 | 0.00 | 0.00 | 83 | 1014.5 |
| 20260508052515 | 52 | 0 | 0.0 | 0.0 | 0.00 | 0.00 | 0.00 | 83 | 1014.5 |
| 20260508052014 | 52 | 0 | 0.0 | 0.0 | 0.00 | 0.00 | 0.00 | 83 | 1014.6 |
| 20260508051513 | 52 | 0 | 0.0 | 0.0 | 0.00 | 0.00 | 0.00 | 83 | 1014.6 |
| 20260508051014 | 52 | 0 | 0.0 | 6.0 | 0.00 | 0.00 | 0.00 | 82 | 1014.6 |
| 20260508050513 | 53 | 0 | 0.0 | 6.0 | 0.00 | 0.00 | 0.00 | 82 | 1014.6 |
| 20260508050013 | 53 | 0 | 0.0 | 6.0 | 0.00 | 0.00 | 0.00 | 82 | 1014.6 |
| 20260508045516 | 53 | 1 | 0.0 | 10.0 | 0.00 | 0.00 | 0.00 | 82 | 1014.7 |
| 20260508045015 | 53 | 337 | 0.0 | 10.0 | 0.00 | 0.00 | 0.00 | 82 | 1014.7 |
| 20260508044513 | 53 | 348 | 0.0 | 10.0 | 0.00 | 0.00 | 0.00 | 82 | 1014.7 |
| 20260508044014 | 53 | 336 | 7.0 | 10.0 | 0.00 | 0.00 | 0.00 | 82 | 1014.7 |
| 20260508043513 | 53 | 348 | 7.0 | 8.0 | 0.00 | 0.00 | 0.00 | 82 | 1014.7 |
| 20260508043013 | 53 | 338 | 0.0 | 9.0 | 0.00 | 0.00 | 0.00 | 82 | 1014.6 |
| 20260508042513 | 53 | 334 | 4.0 | 9.0 | 0.00 | 0.00 | 0.00 | 82 | 1014.6 |
| 20260508042014 | 53 | 344 | 1.0 | 9.0 | 0.00 | 0.00 | 0.00 | 81 | 1014.5 |
| 20260508041513 | 53 | 348 | 1.0 | 9.0 | 0.00 | 0.00 | 0.00 | 81 | 1014.5 |
| 20260508041013 | 53 | 336 | 6.0 | 13.0 | 0.00 | 0.00 | 0.00 | 81 | 1014.5 |
| 20260508040513 | 53 | 334 | 6.0 | 13.0 | 0.00 | 0.00 | 0.00 | 81 | 1014.5 |
| 20260508040013 | 54 | 338 | 6.0 | 13.0 | 0.00 | 0.00 | 0.00 | 81 | 1014.5 |
| 20260508035014 | 54 | 343 | 7.0 | 12.0 | 0.00 | 0.00 | 0.00 | 81 | 1014.4 |
| 20260508034513 | 54 | 352 | 7.0 | 15.0 | 0.00 | 0.00 | 0.00 | 80 | 1014.4 |
| 20260508034016 | 54 | 347 | 7.0 | 15.0 | 0.00 | 0.00 | 0.00 | 80 | 1014.3 |
| 20260508033515 | 54 | 345 | 8.0 | 15.0 | 0.00 | 0.00 | 0.00 | 80 | 1014.3 |
| 20260508033016 | 54 | 331 | 8.0 | 16.0 | 0.00 | 0.00 | 0.00 | 79 | 1014.2 |
| 20260508032515 | 54 | 348 | 8.0 | 16.0 | 0.00 | 0.00 | 0.00 | 79 | 1014.2 |
| 20260508032014 | 54 | 336 | 10.0 | 16.0 | 0.00 | 0.00 | 0.00 | 78 | 1014.1 |
| 20260508031513 | 54 | 327 | 10.0 | 17.0 | 0.00 | 0.00 | 0.00 | 78 | 1014.1 |
| 20260508031013 | 54 | 334 | 9.0 | 17.0 | 0.00 | 0.00 | 0.00 | 78 | 1014.1 |
| 20260508030513 | 55 | 352 | 8.0 | 17.0 | 0.00 | 0.00 | 0.00 | 77 | 1014.0 |
| 20260508030013 | 55 | 337 | 10.0 | 15.0 | 0.00 | 0.00 | 0.00 | 77 | 1013.9 |
| 20260508025513 | 55 | 336 | 8.0 | 16.0 | 0.00 | 0.00 | 0.00 | 76 | 1013.9 |
| 20260508025013 | 55 | 347 | 9.0 | 16.0 | 0.00 | 0.00 | 0.00 | 76 | 1014.0 |
| 20260508024514 | 55 | 341 | 10.0 | 16.0 | 0.00 | 0.00 | 0.00 | 76 | 1014.0 |
| 20260508024013 | 56 | 337 | 8.0 | 18.0 | 0.00 | 0.00 | 0.00 | 75 | 1014.1 |
| 20260508023513 | 56 | 354 | 10.0 | 18.0 | 0.00 | 0.00 | 0.00 | 74 | 1014.0 |
| 20260508023013 | 56 | 341 | 8.0 | 18.0 | 0.00 | 0.00 | 0.00 | 74 | 1014.1 |
| 20260508022516 | 56 | 337 | 8.0 | 17.0 | 0.00 | 0.00 | 0.00 | 73 | 1014.1 |
| 20260508022013 | 56 | 338 | 9.0 | 17.0 | 0.00 | 0.00 | 0.00 | 73 | 1014.1 |
| 20260508021513 | 57 | 331 | 10.0 | 18.0 | 0.00 | 0.00 | 0.00 | 73 | 1014.0 |
| 20260508021013 | 57 | 333 | 10.0 | 18.0 | 0.00 | 0.00 | 0.00 | 73 | 1014.1 |
| 20260508020513 | 57 | 348 | 7.0 | 18.0 | 0.00 | 0.00 | 0.00 | 73 | 1014.1 |
| 20260508020013 | 57 | 347 | 12.0 | 18.0 | 0.00 | 0.00 | 0.00 | 73 | 1014.1 |
| 20260508015513 | 57 | 340 | 11.0 | 18.0 | 0.00 | 0.00 | 0.00 | 73 | 1014.1 |
| 20260508015013 | 57 | 330 | 13.0 | 18.0 | 0.00 | 0.00 | 0.00 | 72 | 1014.1 |
| 20260508014513 | 57 | 355 | 9.0 | 20.0 | 0.00 | 0.00 | 0.00 | 72 | 1014.2 |
| 20260508014013 | 57 | 350 | 12.0 | 20.0 | 0.00 | 0.00 | 0.00 | 71 | 1014.3 |
| 20260508013513 | 57 | 326 | 9.0 | 20.0 | 0.00 | 0.00 | 0.00 | 70 | 1014.2 |
| 20260508013013 | 57 | 344 | 12.0 | 18.0 | 0.00 | 0.00 | 0.00 | 70 | 1014.4 |
| 20260508012513 | 57 | 350 | 10.0 | 19.0 | 0.00 | 0.00 | 0.00 | 69 | 1014.4 |
| 20260508012013 | 58 | 334 | 12.0 | 19.0 | 0.00 | 0.00 | 0.00 | 69 | 1014.4 |
| 20260508011513 | 58 | 330 | 13.0 | 19.0 | 0.00 | 0.00 | 0.00 | 69 | 1014.5 |
| 20260508011013 | 58 | 334 | 12.0 | 19.0 | 0.00 | 0.00 | 0.00 | 68 | 1014.5 |
| 20260508010513 | 58 | 344 | 12.0 | 18.0 | 0.00 | 0.00 | 0.00 | 68 | 1014.5 |
| 20260508010014 | 59 | 341 | 12.0 | 18.0 | 0.00 | 0.00 | 0.00 | 67 | 1014.5 |
| 20260508005514 | 59 | 343 | 13.0 | 18.0 | 0.00 | 0.00 | 0.00 | 66 | 1014.5 |
| 20260508005013 | 59 | 338 | 9.0 | 19.0 | 0.00 | 0.00 | 0.00 | 66 | 1014.4 |
| 20260508004513 | 59 | 345 | 11.0 | 19.0 | 0.00 | 0.00 | 0.00 | 66 | 1014.4 |
| 20260508004013 | 59 | 324 | 10.0 | 19.0 | 0.00 | 0.00 | 0.00 | 67 | 1014.5 |
| 20260508003513 | 59 | 331 | 14.0 | 21.0 | 0.00 | 0.00 | 0.00 | 65 | 1014.7 |
| 20260508003013 | 60 | 343 | 12.0 | 21.0 | 0.00 | 0.00 | 0.00 | 65 | 1014.8 |
| 20260508002513 | 60 | 331 | 13.0 | 21.0 | 0.00 | 0.00 | 0.00 | 65 | 1014.9 |
| 20260508002013 | 60 | 348 | 14.0 | 20.0 | 0.00 | 0.00 | 0.00 | 64 | 1014.8 |
| 20260508001513 | 60 | 329 | 13.0 | 21.0 | 0.00 | 0.00 | 0.00 | 65 | 1014.8 |
| 20260508001013 | 60 | 343 | 13.0 | 21.0 | 0.00 | 0.00 | 0.00 | 64 | 1014.8 |
| 20260508000513 | 60 | 334 | 13.0 | 21.0 | 0.00 | 0.00 | 0.00 | 64 | 1014.8 |
| 20260508000014 | 61 | 330 | 14.0 | 20.0 | 0.00 | 0.00 | 0.00 | 63 | 1014.8 |
| 20260507235513 | 61 | 336 | 13.0 | 20.0 | 0.00 | 0.00 | 0.00 | 63 | 1014.8 |
| 20260507235014 | 61 | 355 | 14.0 | 18.0 | 0.00 | 0.00 | 0.00 | 62 | 1014.8 |
| 20260507234513 | 61 | 347 | 14.0 | 19.0 | 0.00 | 0.00 | 0.00 | 61 | 1014.8 |
| 20260507234013 | 61 | 330 | 13.0 | 19.0 | 0.00 | 0.00 | 0.00 | 61 | 1014.8 |
| 20260507233513 | 62 | 337 | 13.0 | 19.0 | 0.00 | 0.00 | 0.00 | 60 | 1014.8 |
| 20260507233013 | 62 | 334 | 12.0 | 18.0 | 0.00 | 0.00 | 0.00 | 60 | 1014.8 |
| 20260507232513 | 62 | 316 | 10.0 | 18.0 | 0.00 | 0.00 | 0.00 | 60 | 1014.9 |
| 20260507232013 | 62 | 319 | 12.0 | 20.0 | 0.00 | 0.00 | 0.00 | 59 | 1015.0 |
| 20260507231513 | 63 | 338 | 14.0 | 20.0 | 0.00 | 0.00 | 0.00 | 59 | 1015.1 |
| 20260507231013 | 63 | 334 | 14.0 | 20.0 | 0.00 | 0.00 | 0.00 | 58 | 1015.1 |
| 20260507230513 | 63 | 343 | 13.0 | 19.0 | 0.00 | 0.00 | 0.00 | 57 | 1015.1 |
| 20260507230013 | 64 | 348 | 14.0 | 18.0 | 0.00 | 0.00 | 0.00 | 57 | 1015.2 |
| 20260507225513 | 64 | 341 | 11.0 | 18.0 | 0.00 | 0.00 | 0.00 | 58 | 1015.3 |
| 20260507225013 | 64 | 341 | 14.0 | 21.0 | 0.00 | 0.00 | 0.00 | 57 | 1015.4 |
| 20260507224513 | 64 | 337 | 11.0 | 21.0 | 0.00 | 0.00 | 0.00 | 57 | 1015.4 |
| 20260507224013 | 65 | 343 | 13.0 | 21.0 | 0.00 | 0.00 | 0.00 | 56 | 1015.5 |
| 20260507223513 | 65 | 337 | 14.0 | 18.0 | 0.00 | 0.00 | 0.00 | 55 | 1015.6 |
| 20260507223014 | 66 | 337 | 10.0 | 18.0 | 0.00 | 0.00 | 0.00 | 54 | 1015.6 |
| 20260507222513 | 66 | 348 | 10.0 | 17.0 | 0.00 | 0.00 | 0.00 | 55 | 1015.8 |
| 20260507222013 | 67 | 343 | 10.0 | 17.0 | 0.00 | 0.00 | 0.00 | 54 | 1015.8 |
| 20260507221513 | 67 | 341 | 10.0 | 17.0 | 0.00 | 0.00 | 0.00 | 53 | 1015.9 |
| 20260507221013 | 67 | 347 | 10.0 | 14.0 | 0.00 | 0.00 | 0.00 | 53 | 1015.9 |
| 20260507220513 | 68 | 347 | 8.0 | 14.0 | 0.00 | 0.00 | 0.00 | 52 | 1015.9 |
| 20260507220013 | 68 | 341 | 7.0 | 14.0 | 0.00 | 0.00 | 0.00 | 52 | 1016.0 |
| 20260507215515 | 68 | 18 | 8.0 | 14.0 | 0.00 | 0.00 | 0.00 | 52 | 1016.1 |
| 20260507215015 | 68 | 338 | 9.0 | 14.0 | 0.00 | 0.00 | 0.00 | 51 | 1016.1 |
| 20260507214513 | 68 | 350 | 7.0 | 13.0 | 0.00 | 0.00 | 0.00 | 52 | 1016.3 |
| 20260507214013 | 69 | 340 | 10.0 | 16.0 | 0.00 | 0.00 | 0.00 | 51 | 1016.3 |
| 20260507213513 | 69 | 351 | 7.0 | 16.0 | 0.00 | 0.00 | 0.00 | 51 | 1016.2 |
| 20260507213013 | 69 | 348 | 7.0 | 16.0 | 0.00 | 0.00 | 0.00 | 53 | 1016.1 |
| 20260507212514 | 69 | 343 | 9.0 | 15.0 | 0.00 | 0.00 | 0.00 | 51 | 1016.1 |
| 20260507212014 | 69 | 344 | 8.0 | 15.0 | 0.00 | 0.00 | 0.00 | 50 | 1016.1 |
| 20260507211513 | 69 | 333 | 8.0 | 15.0 | 0.00 | 0.00 | 0.00 | 51 | 1016.1 |
| 20260507211013 | 69 | 345 | 10.0 | 15.0 | 0.00 | 0.00 | 0.00 | 50 | 1016.1 |
| 20260507210516 | 69 | 345 | 9.0 | 15.0 | 0.00 | 0.00 | 0.00 | 50 | 1016.1 |
| 20260507210016 | 69 | 354 | 10.0 | 14.0 | 0.00 | 0.00 | 0.00 | 50 | 1016.0 |
| 20260507205513 | 70 | 336 | 7.0 | 14.0 | 0.00 | 0.00 | 0.00 | 51 | 1015.9 |
| 20260507205013 | 69 | 336 | 7.0 | 16.0 | 0.00 | 0.00 | 0.00 | 51 | 1016.0 |
| 20260507204513 | 69 | 338 | 8.0 | 16.0 | 0.00 | 0.00 | 0.00 | 49 | 1015.9 |
| 20260507204013 | 70 | 347 | 8.0 | 16.0 | 0.00 | 0.00 | 0.00 | 49 | 1015.9 |
| 20260507203513 | 69 | 350 | 6.0 | 14.0 | 0.00 | 0.00 | 0.00 | 51 | 1016.0 |
| 20260507203013 | 69 | 334 | 9.0 | 14.0 | 0.00 | 0.00 | 0.00 | 50 | 1016.1 |
| 20260507202513 | 69 | 340 | 7.0 | 14.0 | 0.00 | 0.00 | 0.00 | 52 | 1016.1 |
| 20260507202013 | 69 | 0 | 7.0 | 14.0 | 0.00 | 0.00 | 0.00 | 52 | 1016.2 |
| 20260507201513 | 69 | 352 | 8.0 | 14.0 | 0.00 | 0.00 | 0.00 | 52 | 1016.2 |
| 20260507201013 | 68 | 338 | 8.0 | 15.0 | 0.00 | 0.00 | 0.00 | 52 | 1016.2 |
| 20260507200513 | 68 | 350 | 9.0 | 15.0 | 0.00 | 0.00 | 0.00 | 51 | 1016.2 |
| 20260507200013 | 68 | 357 | 9.0 | 15.0 | 0.00 | 0.00 | 0.00 | 52 | 1016.2 |
| 20260507195513 | 68 | 355 | 6.0 | 12.0 | 0.00 | 0.00 | 0.00 | 50 | 1016.3 |
| 20260507195013 | 69 | 348 | 8.0 | 14.0 | 0.00 | 0.00 | 0.00 | 50 | 1016.3 |
| 20260507194513 | 69 | 348 | 7.0 | 14.0 | 0.00 | 0.00 | 0.00 | 50 | 1016.4 |
| 20260507194013 | 69 | 355 | 11.0 | 14.0 | 0.00 | 0.00 | 0.00 | 48 | 1016.4 |
| 20260507193513 | 69 | 345 | 7.0 | 14.0 | 0.00 | 0.00 | 0.00 | 49 | 1016.5 |
| 20260507193015 | 69 | 351 | 7.0 | 17.0 | 0.00 | 0.00 | 0.00 | 49 | 1016.4 |
| 20260507192513 | 69 | 340 | 7.0 | 17.0 | 0.00 | 0.00 | 0.00 | 50 | 1016.5 |
| 20260507192013 | 69 | 340 | 7.0 | 17.0 | 0.00 | 0.00 | 0.00 | 49 | 1016.5 |
| 20260507191513 | 69 | 350 | 6.0 | 17.0 | 0.00 | 0.00 | 0.00 | 49 | 1016.5 |
| 20260507191013 | 69 | 343 | 9.0 | 17.0 | 0.00 | 0.00 | 0.00 | 49 | 1016.5 |
| 20260507190513 | 69 | 337 | 7.0 | 17.0 | 0.00 | 0.00 | 0.00 | 50 | 1016.5 |
| 20260507190013 | 69 | 350 | 9.0 | 16.0 | 0.00 | 0.00 | 0.00 | 50 | 1016.5 |
| 20260507185513 | 69 | 338 | 8.0 | 14.0 | 0.00 | 0.00 | 0.00 | 50 | 1016.6 |
| 20260507185013 | 68 | 345 | 8.0 | 14.0 | 0.00 | 0.00 | 0.00 | 50 | 1016.7 |
| 20260507184513 | 68 | 348 | 6.0 | 16.0 | 0.00 | 0.00 | 0.00 | 51 | 1016.7 |
| 20260507184013 | 68 | 338 | 7.0 | 16.0 | 0.00 | 0.00 | 0.00 | 52 | 1016.6 |
| 20260507183513 | 67 | 344 | 10.0 | 16.0 | 0.00 | 0.00 | 0.00 | 52 | 1016.6 |
| 20260507183013 | 67 | 350 | 12.0 | 18.0 | 0.00 | 0.00 | 0.00 | 51 | 1016.7 |
| 20260507182513 | 67 | 343 | 9.0 | 18.0 | 0.00 | 0.00 | 0.00 | 53 | 1016.7 |
| 20260507182013 | 67 | 329 | 12.0 | 18.0 | 0.00 | 0.00 | 0.00 | 51 | 1016.8 |
| 20260507181513 | 67 | 341 | 13.0 | 17.0 | 0.00 | 0.00 | 0.00 | 52 | 1016.8 |
| 20260507181013 | 67 | 338 | 10.0 | 17.0 | 0.00 | 0.00 | 0.00 | 53 | 1016.8 |
| 20260507180513 | 66 | 341 | 12.0 | 17.0 | 0.00 | 0.00 | 0.00 | 52 | 1016.8 |
| 20260507180013 | 67 | 344 | 9.0 | 16.0 | 0.00 | 0.00 | 0.00 | 53 | 1016.8 |
| 20260507175513 | 67 | 352 | 9.0 | 15.0 | 0.00 | 0.00 | 0.00 | 54 | 1016.9 |
| 20260507175013 | 66 | 344 | 8.0 | 15.0 | 0.00 | 0.00 | 0.00 | 55 | 1016.9 |
| 20260507174513 | 66 | 344 | 8.0 | 15.0 | 0.00 | 0.00 | 0.00 | 56 | 1017.0 |
| 20260507174013 | 65 | 357 | 9.0 | 15.0 | 0.00 | 0.00 | 0.00 | 56 | 1017.0 |
| 20260507173513 | 65 | 354 | 8.0 | 15.0 | 0.00 | 0.00 | 0.00 | 60 | 1017.0 |
| 20260507173013 | 64 | 350 | 8.0 | 16.0 | 0.00 | 0.00 | 0.00 | 59 | 1017.0 |
| 20260507172513 | 63 | 350 | 10.0 | 16.0 | 0.00 | 0.00 | 0.00 | 59 | 1017.1 |
| 20260507172013 | 63 | 344 | 11.0 | 16.0 | 0.00 | 0.00 | 0.00 | 59 | 1017.1 |
| 20260507171513 | 63 | 340 | 11.0 | 15.0 | 0.00 | 0.00 | 0.00 | 58 | 1017.1 |
| 20260507171013 | 63 | 341 | 11.0 | 15.0 | 0.00 | 0.00 | 0.00 | 60 | 1017.1 |
| 20260507170513 | 63 | 340 | 10.0 | 15.0 | 0.00 | 0.00 | 0.00 | 59 | 1017.1 |
| 20260507170013 | 63 | 357 | 10.0 | 13.0 | 0.00 | 0.00 | 0.00 | 60 | 1017.1 |
| 20260507165513 | 63 | 4 | 7.0 | 14.0 | 0.00 | 0.00 | 0.00 | 64 | 1017.1 |
| 20260507165013 | 63 | 345 | 6.0 | 14.0 | 0.00 | 0.00 | 0.00 | 64 | 1017.1 |
| 20260507164513 | 63 | 344 | 8.0 | 14.0 | 0.00 | 0.00 | 0.00 | 61 | 1017.1 |
| 20260507164013 | 63 | 338 | 8.0 | 14.0 | 0.00 | 0.00 | 0.00 | 60 | 1017.1 |
| 20260507163512 | 64 | 338 | 7.0 | 13.0 | 0.00 | 0.00 | 0.00 | 61 | 1017.1 |
| 20260507163014 | 63 | 0 | 5.0 | 13.0 | 0.00 | 0.00 | 0.00 | 65 | 1017.1 |
| 20260507162512 | 62 | 350 | 8.0 | 12.0 | 0.00 | 0.00 | 0.00 | 66 | 1017.2 |
| 20260507162013 | 61 | 343 | 6.0 | 13.0 | 0.00 | 0.00 | 0.00 | 67 | 1017.1 |
| 20260507161512 | 61 | 350 | 7.0 | 13.0 | 0.00 | 0.00 | 0.00 | 68 | 1017.2 |
| 20260507161012 | 60 | 338 | 10.0 | 13.0 | 0.00 | 0.00 | 0.00 | 68 | 1017.1 |
| 20260507160514 | 60 | 338 | 9.0 | 11.0 | 0.00 | 0.00 | 0.00 | 71 | 1017.2 |
| 20260507160013 | 59 | 350 | 6.0 | 11.0 | 0.00 | 0.00 | 0.00 | 74 | 1017.2 |
| 20260507155513 | 58 | 340 | 5.0 | 11.0 | 0.00 | 0.00 | 0.00 | 75 | 1017.2 |
| 20260507155014 | 57 | 340 | 6.0 | 10.0 | 0.00 | 0.00 | 0.00 | 77 | 1017.2 |
| 20260507154513 | 57 | 344 | 7.0 | 11.0 | 0.00 | 0.00 | 0.00 | 76 | 1017.2 |
| 20260507154012 | 57 | 338 | 7.0 | 11.0 | 0.00 | 0.00 | 0.00 | 76 | 1017.2 |
| 20260507153513 | 57 | 344 | 7.0 | 11.0 | 0.00 | 0.00 | 0.00 | 77 | 1017.3 |
| 20260507153013 | 56 | 338 | 7.0 | 9.0 | 0.00 | 0.00 | 0.00 | 78 | 1017.2 |
| 20260507152513 | 56 | 344 | 4.0 | 9.0 | 0.00 | 0.00 | 0.00 | 79 | 1017.3 |
| 20260507152013 | 56 | 348 | 6.0 | 9.0 | 0.00 | 0.00 | 0.00 | 80 | 1017.2 |
| 20260507151512 | 55 | 338 | 6.0 | 10.0 | 0.00 | 0.00 | 0.00 | 80 | 1017.1 |
| 20260507151013 | 55 | 350 | 6.0 | 10.0 | 0.00 | 0.00 | 0.00 | 81 | 1017.2 |
| 20260507150513 | 55 | 333 | 6.0 | 10.0 | 0.00 | 0.00 | 0.00 | 81 | 1017.2 |
| 20260507150014 | 55 | 329 | 1.0 | 9.0 | 0.00 | 0.00 | 0.00 | 82 | 1017.1 |
| 20260507145514 | 55 | 331 | 5.0 | 9.0 | 0.00 | 0.00 | 0.00 | 82 | 1017.2 |
| 20260507145013 | 54 | 337 | 5.0 | 9.0 | 0.00 | 0.00 | 0.00 | 82 | 1017.2 |
| 20260507144513 | 54 | 0 | 1.0 | 7.0 | 0.00 | 0.00 | 0.00 | 82 | 1017.2 |
| 20260507144013 | 54 | 337 | 0.0 | 7.0 | 0.00 | 0.00 | 0.00 | 83 | 1017.3 |
| 20260507143512 | 54 | 333 | 3.0 | 7.0 | 0.00 | 0.00 | 0.00 | 83 | 1017.2 |
| 20260507143013 | 54 | 0 | 0.0 | 0.0 | 0.00 | 0.00 | 0.00 | 83 | 1017.2 |
| 20260507142513 | 53 | 0 | 0.0 | 0.0 | 0.00 | 0.00 | 0.00 | 83 | 1017.1 |
| 20260507142014 | 53 | 0 | 0.0 | 7.0 | 0.00 | 0.00 | 0.00 | 83 | 1017.1 |
| 20260507141513 | 53 | 0 | 0.0 | 7.0 | 0.00 | 0.00 | 0.00 | 83 | 1017.1 |
| 20260507141014 | 53 | 354 | 0.0 | 7.0 | 0.00 | 0.00 | 0.00 | 83 | 1017.0 |
| 20260507140512 | 53 | 0 | 0.0 | 0.0 | 0.00 | 0.00 | 0.00 | 83 | 1017.0 |
| 20260507140013 | 53 | 0 | 0.0 | 0.0 | 0.00 | 0.00 | 0.00 | 83 | 1017.0 |
| 20260507135513 | 53 | 0 | 0.0 | 0.0 | 0.00 | 0.00 | 0.00 | 83 | 1016.9 |
| 20260507135013 | 53 | 0 | 0.0 | 0.0 | 0.00 | 0.00 | 0.00 | 83 | 1016.9 |
| 20260507134513 | 53 | 0 | 0.0 | 0.0 | 0.00 | 0.00 | 0.00 | 83 | 1016.8 |
| 20260507134013 | 53 | 0 | 0.0 | 0.0 | 0.00 | 0.00 | 0.00 | 83 | 1016.9 |
| 20260507133513 | 53 | 0 | 0.0 | 0.0 | 0.00 | 0.00 | 0.00 | 82 | 1016.9 |
| 20260507133014 | 53 | 0 | 0.0 | 8.0 | 0.00 | 0.00 | 0.00 | 82 | 1016.9 |
| 20260507132513 | 53 | 0 | 0.0 | 8.0 | 0.00 | 0.00 | 0.00 | 82 | 1016.8 |
| 20260507132012 | 53 | 350 | 0.0 | 8.0 | 0.00 | 0.00 | 0.00 | 82 | 1016.8 |
| 20260507131513 | 53 | 0 | 4.0 | 4.0 | 0.00 | 0.00 | 0.00 | 82 | 1016.8 |
| 20260507131013 | 53 | 0 | 0.0 | 2.0 | 0.00 | 0.00 | 0.00 | 82 | 1016.9 |
| 20260507130513 | 53 | 338 | 0.0 | 2.0 | 0.00 | 0.00 | 0.00 | 82 | 1016.8 |
| 20260507130013 | 53 | 0 | 0.0 | 0.0 | 0.00 | 0.00 | 0.00 | 82 | 1016.9 |
| 20260507125513 | 53 | 0 | 0.0 | 6.0 | 0.00 | 0.00 | 0.00 | 82 | 1016.9 |
| 20260507125013 | 53 | 350 | 0.0 | 6.0 | 0.00 | 0.00 | 0.00 | 82 | 1016.9 |
| 20260507124513 | 53 | 336 | 0.0 | 6.0 | 0.00 | 0.00 | 0.00 | 82 | 1016.8 |
| 20260507124013 | 54 | 0 | 0.0 | 0.0 | 0.00 | 0.00 | 0.00 | 82 | 1016.8 |
| 20260507123512 | 54 | 0 | 0.0 | 6.0 | 0.00 | 0.00 | 0.00 | 82 | 1016.9 |
| 20260507122513 | 54 | 322 | 0.0 | 6.0 | 0.00 | 0.00 | 0.00 | 82 | 1017.0 |
| 20260507122013 | 54 | 355 | 0.0 | 3.0 | 0.00 | 0.00 | 0.00 | 82 | 1017.1 |
| 20260507121512 | 54 | 0 | 0.0 | 5.0 | 0.00 | 0.00 | 0.00 | 82 | 1017.1 |
| 20260507121013 | 54 | 0 | 0.0 | 5.0 | 0.00 | 0.00 | 0.00 | 82 | 1017.1 |
| 20260507120513 | 54 | 357 | 0.0 | 5.0 | 0.00 | 0.00 | 0.00 | 82 | 1017.1 |
| 20260507120012 | 54 | 0 | 0.0 | 0.0 | 0.00 | 0.00 | 0.00 | 83 | 1017.1 |
| 20260507115512 | 54 | 0 | 0.0 | 6.0 | 0.00 | 0.00 | 0.00 | 83 | 1017.1 |
| 20260507115013 | 54 | 0 | 0.0 | 6.0 | 0.00 | 0.00 | 0.00 | 83 | 1017.2 |
| 20260507114513 | 54 | 357 | 0.0 | 6.0 | 0.00 | 0.00 | 0.00 | 83 | 1017.2 |
| 20260507114012 | 54 | 338 | 0.0 | 6.0 | 0.00 | 0.00 | 0.00 | 83 | 1017.2 |
| 20260507113513 | 54 | 340 | 2.0 | 4.0 | 0.00 | 0.00 | 0.00 | 83 | 1017.3 |
| 20260507113012 | 54 | 0 | 1.0 | 1.0 | 0.00 | 0.00 | 0.00 | 83 | 1017.2 |
| 20260507112514 | 54 | 0 | 0.0 | 0.0 | 0.00 | 0.00 | 0.00 | 83 | 1017.2 |
| 20260507112013 | 54 | 0 | 0.0 | 3.0 | 0.00 | 0.00 | 0.00 | 83 | 1017.3 |
| 20260507111512 | 54 | 0 | 0.0 | 3.0 | 0.00 | 0.00 | 0.00 | 83 | 1017.3 |
| 20260507111012 | 54 | 354 | 0.0 | 3.0 | 0.00 | 0.00 | 0.00 | 84 | 1017.3 |
| 20260507110512 | 54 | 0 | 0.0 | 0.0 | 0.00 | 0.00 | 0.00 | 83 | 1017.3 |
| 20260507110012 | 54 | 0 | 0.0 | 0.0 | 0.00 | 0.00 | 0.00 | 83 | 1017.3 |
| 20260507105513 | 54 | 0 | 0.0 | 8.0 | 0.00 | 0.00 | 0.00 | 83 | 1017.3 |
| 20260507105013 | 54 | 0 | 0.0 | 8.0 | 0.00 | 0.00 | 0.00 | 83 | 1017.3 |
| 20260507104512 | 54 | 354 | 0.0 | 8.0 | 0.00 | 0.00 | 0.00 | 83 | 1017.4 |
| 20260507104016 | 54 | 345 | 1.0 | 8.0 | 0.00 | 0.00 | 0.00 | 83 | 1017.4 |
| 20260507103512 | 54 | 0 | 0.0 | 6.0 | 0.00 | 0.00 | 0.00 | 83 | 1017.5 |
| 20260507103012 | 54 | 0 | 1.0 | 6.0 | 0.00 | 0.00 | 0.00 | 82 | 1017.6 |
| 20260507102512 | 54 | 333 | 0.0 | 6.0 | 0.00 | 0.00 | 0.00 | 82 | 1017.6 |
| 20260507102012 | 54 | 0 | 2.0 | 6.0 | 0.00 | 0.00 | 0.00 | 82 | 1017.7 |
| 20260507101512 | 55 | 338 | 0.0 | 6.0 | 0.00 | 0.00 | 0.00 | 82 | 1017.7 |
| 20260507101012 | 54 | 347 | 0.0 | 2.0 | 0.00 | 0.00 | 0.00 | 82 | 1017.7 |
| 20260507100512 | 54 | 0 | 0.0 | 0.0 | 0.00 | 0.00 | 0.00 | 82 | 1017.7 |
| 20260507100012 | 54 | 0 | 0.0 | 0.0 | 0.00 | 0.00 | 0.00 | 82 | 1017.8 |
| 20260507095512 | 54 | 0 | 0.0 | 0.0 | 0.00 | 0.00 | 0.00 | 82 | 1017.8 |
| 20260507095012 | 55 | 0 | 0.0 | 6.0 | 0.00 | 0.00 | 0.00 | 82 | 1017.8 |
| 20260507094513 | 55 | 0 | 0.0 | 6.0 | 0.00 | 0.00 | 0.00 | 82 | 1017.8 |
| 20260507094012 | 55 | 330 | 0.0 | 6.0 | 0.00 | 0.00 | 0.00 | 82 | 1017.9 |
| 20260507093512 | 55 | 0 | 0.0 | 0.0 | 0.00 | 0.00 | 0.00 | 82 | 1017.9 |
| 20260507093012 | 55 | 0 | 0.0 | 6.0 | 0.00 | 0.00 | 0.00 | 83 | 1017.9 |
| 20260507092512 | 55 | 0 | 0.0 | 6.0 | 0.00 | 0.00 | 0.00 | 83 | 1018.0 |
| 20260507092012 | 55 | 341 | 0.0 | 6.0 | 0.00 | 0.00 | 0.00 | 83 | 1018.0 |
| 20260507091513 | 55 | 0 | 0.0 | 0.0 | 0.00 | 0.00 | 0.00 | 83 | 1018.1 |